Location: downtown San Diego
(32.7310°N, 117.1990°W)
Time: 20:41:09
(UTC-08:00)

NOSS 2-2 (E) - Pass Details

Date: 19 May 2017
Orbit: 537 x 1671 km, 63.3° (Epoch: 10 November)

Event Time Altitude Azimuth Distance (km) Brightness Sun altitude
Rises 21:02:26 0° 193° (SSW) 2,686 6.6 -15.1°
Enters shadow 21:02:55 - 192° (SSW) 2,488 6.4 -15.2°
Exits shadow 21:03:37 - 190° (S) 2,201 6.1 -15.3°
Reaches altitude 10° 21:04:39 10° 186° (S) 1,782 5.6 -15.4°
Maximum altitude 21:08:18 41° 115° (ESE) 796 3.6 -16.1°
Drops below altitude 10° 21:12:17 10° 44° (NE) 1,935 6.0 -16.7°
Sets 21:14:46 0° 38° (NE) 2,952 7.1 -17.1°
